Overview Statistics Trail Chart Weather Telemetry Raw packets
 

This is the latest recevied weather packets stored in our database for station/object K5FEP. If no packets are shown the sender has not sent any weather packets the latest 10 day(s).

<< 1 2 3 4 5 >>
Time Temp. Humidity Pressure Rain* Wind** Luminosity Snow
1788643763 28.89° C 66% 1009.5 hPa 0 mm - 64 W/m² -
1788643458 28.89° C 66% 1009.5 hPa 0 mm - 83 W/m² -
1788643157 28.89° C 65% 1009.5 hPa 0 mm - 74 W/m² -
1788642853 29.44° C 64% 1009.4 hPa 0 mm - 70 W/m² -
1788642549 30° C 63% 1009.5 hPa 0 mm - 59 W/m² -
1788642249 30° C 62% 1009 hPa 0 mm - 51 W/m² -
1788641949 30.56° C 64% 1008.8 hPa 0 mm - 113 W/m² -
1788641643 31.11° C 61% 1008.9 hPa 0 mm - 110 W/m² -
1788641342 31.67° C 61% 1008.6 hPa 0 mm - 129 W/m² -
1788641038 31.67° C 60% 1008.7 hPa 0 mm - 202 W/m² -
1788640737 32.22° C 58% 1008.7 hPa 0 mm - 198 W/m² -
1788640433 32.78° C 54% 1008.8 hPa 0 mm - 165 W/m² -
1788640129 32.78° C 51% 1008.9 hPa 0 mm - 125 W/m² -
1788639829 32.78° C 51% 1008.9 hPa 0 mm - 181 W/m² -
1788639525 32.78° C 51% 1009.1 hPa 0 mm - 158 W/m² -
1788639220 32.78° C 52% 1009 hPa 0 mm - 179 W/m² -
1788638941 32.78° C 50% 1009.2 hPa 0 mm - 309 W/m² -
1788638616 32.78° C 51% 1008.9 hPa 0 mm - 319 W/m² -
1788638313 33.33° C 50% 1009.1 hPa 0 mm - 314 W/m² -
1788638009 33.33° C 51% 1009.2 hPa 0 mm - 299 W/m² -
1788637705 32.78° C 53% 1009.1 hPa 0 mm - 287 W/m² -
1788637404 32.78° C 54% 1009.1 hPa 0 mm - 288 W/m² -
1788637103 32.78° C 54% 1009 hPa 0 mm - 256 W/m² -
1788636799 32.78° C 53% 1009.1 hPa 0 mm - 218 W/m² -
1788636494 32.78° C 54% 1009.4 hPa 0 mm - 213 W/m² -

* Rain latest hour (hover to see other rain measurements)
** Current wind speed in m/s (hover to see current wind gust speed)